Wind_Speed
12 10 13 15 24 25 24 20 26 17 14 18 25 29 28 12 15 20 22 23 22 23 25 29 31 34 36 37 37 39 39 40 40 39 41 36 37 41 44 43 41 39 33 30
5 11 3 11 18 19 14 17 21 24 24 21 17 30 27 18 20 20 22 22 21 23 24 26 29 33 35 38 39 42 43 45 43 43 42 43 42 46 47 43 41 37 35 32
10 12 6 12 7 7 9 9 10 26 20 24 35 16 19 23 20 21 21 21 22 25 27 29 32 36 38 42 44 45 45 46 45 44 44 46 49 49 46 43 42 38 37 34
11 8 8 14 12 13 15 23 25 28 28 28 26 20 19 21 22 21 21 22 25 27 29 31 36 41 43 44 47 47 42 36 33 36 39 39 41 43 42 42 42 40 41 37
11 11 11 12 13 14 16 19 18 17 20 24 23 22 22 21 21 22 23 25 25 27 29 33 37 39 38 37 39 38 43 36 30 33 37 36 39 41 44 44 45 43 42 37
15 14 15 19 14 16 19 20 22 27 22 24 24 24 25 25 24 23 24 24 27 30 32 30 34 37 39 37 31 33 37 29 25 26 33 35 40 44 44 45 44 47 38 37
14 16 19 18 18 18 21 25 28 22 27 28 26 26 25 25 25 24 25 26 26 25 28 30 33 30 35 31 27 31 29 29 23 26 31 41 41 40 42 48 59 41 39 38
13 17 19 23 25 22 20 29 26 16 26 26 27 25 25 26 25 25 26 25 26 26 28 27 25 25 16 12 17 35 43 37 30 34 32 32 35 34 48 46 38 37 41 42
8 10 9 20 19 23 27 19 33 25 22 22 24 23 21 20 21 22 24 25 23 20 22 21 22 18 14 9 10 27 41 42 42 37 44 39 43 47 44 39 36 39 43 39
17 15 13 11 16 23 20 14 23 24 25 26 24 21 21 21 23 23 22 21 17 16 10 6 5 8 9 8 5 6 23 33 45 54 57 46 51 54 46 42 41 39 37 33
20 22 21 17 13 16 19 12 16 16 17 18 18 20 21 22 23 23 20 18 17 18 16 10 10 9 10 6 7 7 4 24 29 32 40 41 38 44 42 48 47 37 31 30
19 20 21 18 20 18 16 19 17 14 15 18 18 18 19 22 22 20 19 19 19 22 18 16 15 13 12 8 5 8 12 12 14 23 30 32 34 36 36 35 34 36 34 33
13 17 20 20 18 16 16 16 18 17 16 19 17 17 18 19 18 16 17 19 19 18 18 18 18 17 15 12 8 8 12 14 18 18 20 19 26 31 33 36 37 35 34 33
9 7 12 15 15 20 17 16 17 18 16 21 20 17 17 16 17 17 17 17 17 16 15 14 13 14 14 15 15 10 7 9 11 13 10 14 17 22 24 28 32 27 26 27
7 9 8 8 8 12 17 16 16 22 18 18 24 23 19 17 15 17 17 18 16 16 16 15 13 12 13 12 14 14 16 15 13 13 13 14 17 20 21 24 27 29 31 31
12 11 11 11 9 7 10 15 19 20 24 23 22 24 23 22 21 21 20 18 16 16 16 16 15 14 14 15 15 15 15 14 15 16 18 19 22 23 24 24 25 25 26 28
13 12 16 17 15 15 12 13 15 19 21 25 25 25 26 26 25 24 24 23 23 21 19 19 18 18 17 17 18 18 19 19 19 19 20 21 22 23 24 25 27 28 29 30
24 20 20 21 20 22 22 21 21 21 21 21 26 28 29 29 28 27 27 27 27 27 26 24 23 24 24 24 24 23 23 25 26 25 25 26 28 29 30 31 32 33 33 34
36 38 38 35 29 26 26 26 26 27 27 28 28 28 29 31 32 32 33 33 33 33 33 33 32 31 33 33 32 33 33 32 32 32 32 33 33 34 35 36 38 38 39 41
33 31 33 33 32 32 31 30 31 33 33 33 32 32 34 36 37 37 37 37 37 37 38 38 38 39 38 39 40 41 41 42 42 41 41 40 40 40 41 41 42 43 45 46
26 28 31 32 33 34 35 34 33 34 35 37 39 40 41 42 43 43 43 43 43 44 43 43 43 43 42 40 40 41 43 43 45 46 46 44 44 44 45 46 46 47 49 50
23 25 28 34 36 38 39 40 41 41 39 38 37 37 40 43 45 47 49 49 49 49 49 48 47 46 44 43 43 43 43 43 43 44 44 45 46 47 47 48 50 51 52 53
26 28 30 33 36 39 42 44 44 45 44 44 44 44 44 43 45 46 48 50 50 51 51 52 51 50 50 48 48 48 48 47 47 48 49 50 50 51 52 54 56 57 58 58
29 30 33 35 38 41 44 46 48 50 51 51 51 51 51 51 52 51 51 51 51 51 52 53 53 53 53 52 52 52 52 53 53 54 54 54 53 54 55 56 57 58 59 60
33 35 36 38 40 42 45 48 50 52 54 55 56 56 57 57 57 56 55 54 54 55 55 55 55 55 55 55 56 56 56 57 57 57 57 56 56 57 57 57 57 57 56 56
31 32 34 36 38 41 44 47 50 52 54 55 57 57 57 58 57 57 57 57 57 57 58 58 59 59 59 60 60 60 61 61 61 60 60 60 60 60 60 60 60 60 59 59
33 32 34 35 36 39 42 41 41 42 45 47 50 52 54 56 57 58 59 59 59 59 59 59 59 59 60 60 61 61 61 61 61 61 61 61 61 61 61 61 61 61 60 60
Wind_Direction
271 177 209 204 196 201 216 213 201 223 221 205 233 228 216 215 247 256 253 260 265 267 265 263 261 260 259 257 260 259 259 256 257 259 255 253 248 240 244 247 249 254 252 249
265 176 95 163 187 187 192 203 192 218 226 223 235 226 227 270 268 263 265 268 276 284 282 277 271 268 267 267 266 264 265 265 265 261 258 250 237 234 237 238 244 250 248 244
286 227 194 207 186 202 187 205 213 216 225 224 248 261 258 268 270 272 274 281 285 290 295 292 284 278 277 278 276 273 273 269 263 255 244 233 231 228 231 231 237 240 243 239
263 265 251 228 222 229 224 218 223 226 231 243 258 262 258 265 273 275 282 283 286 286 289 292 291 288 287 284 279 275 268 257 250 237 229 230 230 229 226 229 233 237 238 234
223 241 228 244 230 224 227 244 243 233 234 240 249 257 259 263 273 277 279 283 284 284 289 293 295 291 286 277 264 246 241 253 244 235 226 224 226 222 224 230 233 236 232 233
211 223 231 243 240 226 231 243 260 244 241 243 251 258 260 266 272 276 274 277 285 283 289 287 292 292 295 288 264 245 251 240 238 233 222 224 226 225 226 233 236 229 225 233
221 223 237 232 238 236 235 231 247 257 255 248 247 252 259 266 274 280 277 279 282 287 292 283 290 285 292 278 278 227 206 237 236 227 223 225 225 226 233 238 236 214 227 233
221 231 244 244 242 243 237 233 227 231 228 246 249 255 263 269 274 278 279 281 283 288 287 284 278 288 276 296 269 213 193 194 229 239 223 228 223 228 229 237 214 220 228 234
274 206 230 233 242 241 243 241 221 227 235 248 250 258 261 263 267 271 274 276 273 276 282 284 285 284 278 319 318 228 203 201 229 223 201 223 252 237 244 230 224 230 232 239
273 259 272 264 260 254 264 266 225 231 239 247 245 252 257 259 262 266 271 273 267 259 283 293 339 346 320 270 277 226 221 209 206 209 226 229 216 224 225 236 237 236 249 243
268 262 262 267 269 263 255 259 251 227 232 242 247 253 256 261 266 267 272 273 260 259 273 285 309 331 339 339 268 271 210 210 200 196 201 195 195 193 195 202 224 237 227 228
269 270 263 270 263 266 241 238 246 245 237 241 246 253 258 262 264 274 272 277 275 259 258 264 272 309 312 305 254 241 223 214 205 195 193 194 196 198 199 202 206 213 218 222
259 270 258 268 262 256 240 240 244 243 240 238 246 255 256 261 268 284 287 283 280 283 280 273 283 304 307 290 280 227 218 215 227 236 224 216 212 215 222 220 218 221 224 230
244 268 264 260 257 240 248 252 242 236 240 241 245 253 263 268 275 280 280 281 283 290 297 297 297 301 304 308 306 294 273 226 214 224 244 244 243 243 245 247 242 242 242 245
258 262 270 284 285 258 244 237 244 235 244 252 249 256 260 265 272 280 283 283 283 283 286 290 290 286 285 282 288 293 299 298 294 279 263 247 247 248 251 253 249 247 248 251
273 264 263 272 269 282 263 256 254 254 256 253 252 251 258 265 267 272 274 279 282 284 285 286 285 282 284 278 273 270 268 265 261 264 266 266 263 260 260 263 264 264 264 265
259 279 282 275 270 263 258 260 262 256 253 248 250 253 256 262 263 266 269 271 275 278 279 281 286 287 284 281 277 274 269 266 262 261 262 263 261 260 258 257 258 258 259 261
262 267 278 284 284 277 272 267 263 266 264 260 257 257 258 259 261 262 262 265 267 270 274 276 279 278 280 282 281 278 278 277 272 269 268 267 267 266 266 265 265 265 266 269
267 267 270 277 283 282 277 274 273 274 275 270 265 260 260 259 262 262 263 264 265 267 269 270 271 273 272 273 274 273 274 273 272 271 270 270 269 267 267 267 268 268 269 270
274 270 265 266 269 272 274 275 272 268 268 268 266 264 264 264 265 266 266 265 266 267 267 268 269 269 271 271 271 272 273 273 272 271 269 268 268 269 269 270 272 273 274 274
286 266 262 263 266 267 267 273 277 273 270 269 268 266 265 265 265 267 268 269 268 270 270 272 272 271 270 273 274 274 274 274 273 272 272 272 272 273 274 275 276 276 276 277
286 280 273 267 268 268 272 273 274 274 271 268 271 272 272 271 269 268 269 270 270 271 270 271 271 270 269 270 269 268 268 268 270 271 272 273 274 275 276 277 277 277 277 277
287 283 280 278 275 273 272 273 274 274 273 270 270 271 272 272 270 269 268 268 269 269 270 270 270 270 269 268 268 268 268 268 268 269 270 270 270 272 273 274 275 275 275 275
294 290 287 283 280 277 275 273 273 273 272 273 272 271 270 270 270 270 270 270 270 269 269 268 268 267 268 268 269 270 271 271 271 271 271 272 273 274 275 275 275 275 274 274
304 300 295 291 287 284 281 279 277 276 274 273 272 271 270 270 269 269 269 268 267 267 268 269 269 270 270 271 272 272 273 273 273 273 273 273 273 274 274 275 276 277 278 278
308 302 299 296 294 291 289 286 282 278 275 274 273 272 271 270 270 269 269 268 268 267 267 267 267 267 268 269 270 271 271 272 272 273 274 274 275 276 276 277 277 278 278 279
318 314 313 311 309 309 308 301 292 285 280 277 274 272 271 269 268 268 268 267 267 267 268 268 268 268 268 268 268 269 270 270 271 272 272 273 274 275 275 276 277 278 278 279
Height
5541 5544 5546 5549 5554 5559 5566 5572 5575 5577 5581 5582 5584 5584 5582 5585 5588 5591 5592 5593 5594 5595 5596 5596 5596 5598 5599 5602 5603 5605 5607 5610 5614 5616 5619 5623 5629 5632 5635 5642 5647 5652 5657 5659
5541 5545 5544 5549 5554 5558 5562 5567 5571 5574 5576 5576 5575 5576 5578 5579 5583 5584 5585 5585 5585 5585 5585 5586 5586 5587 5588 5590 5592 5594 5594 5597 5600 5602 5605 5610 5615 5619 5624 5632 5638 5644 5648 5651
5542 5544 5546 5551 5552 5557 5560 5565 5565 5568 5569 5571 5567 5573 5574 5575 5577 5579 5578 5576 5576 5576 5576 5575 5576 5576 5577 5577 5577 5579 5581 5583 5585 5586 5589 5594 5602 5608 5615 5623 5629 5635 5639 5643
5544 5545 5549 5549 5554 5556 5559 5559 5562 5564 5565 5566 5567 5568 5571 5572 5573 5572 5570 5569 5569 5568 5568 5567 5566 5565 5564 5565 5565 5566 5567 5569 5571 5573 5578 5585 5592 5600 5609 5615 5620 5625 5630 5634
5543 5545 5548 5547 5550 5553 5554 5556 5558 5560 5561 5562 5563 5564 5565 5566 5565 5564 5564 5563 5562 5561 5559 5558 5557 5555 5554 5553 5552 5553 5555 5560 5563 5566 5571 5578 5586 5594 5600 5606 5610 5616 5620 5626
5541 5543 5545 5546 5548 5549 5550 5552 5552 5553 5556 5557 5557 5558 5559 5559 5559 5558 5557 5556 5554 5553 5553 5553 5551 5548 5546 5543 5544 5543 5546 5552 5555 5558 5564 5571 5579 5585 5592 5597 5603 5607 5612 5618
5540 5540 5541 5542 5543 5545 5547 5549 5546 5549 5549 5550 5551 5552 5553 5553 5552 5551 5550 5550 5549 5549 5548 5547 5546 5543 5538 5533 5535 5535 5541 5546 5550 5554 5559 5566 5571 5578 5585 5589 5593 5596 5604 5609
5537 5537 5538 5537 5539 5541 5542 5540 5543 5543 5543 5544 5545 5546 5546 5547 5547 5547 5546 5546 5546 5545 5543 5542 5539 5538 5534 5529 5526 5528 5534 5539 5545 5547 5552 5559 5565 5571 5576 5580 5582 5589 5595 5600
5531 5531 5530 5531 5534 5535 5535 5537 5536 5537 5539 5540 5541 5541 5541 5542 5542 5543 5543 5542 5543 5542 5539 5536 5534 5532 5529 5525 5523 5525 5529 5533 5538 5543 5542 5550 5556 5564 5569 5573 5577 5582 5586 5589
5529 5529 5528 5530 5530 5530 5531 5532 5532 5533 5534 5536 5537 5537 5537 5538 5538 5539 5539 5538 5538 5537 5535 5533 5530 5529 5525 5523 5523 5522 5524 5527 5531 5535 5542 5548 5548 5555 5559 5562 5569 5572 5577 5580
5526 5526 5526 5526 5527 5526 5527 5528 5528 5529 5530 5531 5532 5533 5533 5534 5534 5534 5534 5534 5534 5534 5533 5531 5528 5525 5523 5522 5521 5520 5521 5525 5528 5528 5534 5538 5542 5546 5550 5553 5559 5564 5568 5571
5522 5522 5523 5523 5523 5522 5523 5524 5525 5525 5526 5528 5529 5529 5529 5529 5530 5529 5529 5529 5529 5530 5529 5528 5526 5524 5522 5519 5519 5519 5520 5522 5524 5526 5530 5532 5536 5540 5543 5546 5550 5554 5557 5561
5519 5519 5519 5519 5519 5519 5519 5519 5520 5522 5523 5524 5524 5524 5525 5525 5525 5525 5525 5525 5525 5525 5525 5525 5523 5521 5520 5519 5518 5518 5519 5520 5523 5525 5527 5529 5532 5535 5537 5538 5539 5542 5546 5550
5516 5516 5516 5515 5514 5514 5514 5515 5516 5518 5520 5521 5521 5521 5521 5521 5521 5521 5521 5522 5522 5521 5521 5521 5521 5520 5519 5517 5516 5516 5516 5516 5518 5520 5522 5523 5527 5531 5532 5535 5536 5537 5539 5543
5512 5512 5512 5511 5510 5509 5510 5511 5512 5514 5516 5517 5517 5518 5517 5517 5516 5517 5517 5517 5517 5518 5518 5518 5518 5518 5518 5518 5517 5515 5515 5515 5516 5518 5520 5522 5524 5526 5528 5529 5530 5532 5534 5536
5509 5508 5508 5508 5508 5507 5506 5507 5508 5509 5510 5512 5512 5513 5513 5513 5512 5512 5512 5512 5512 5512 5513 5513 5513 5514 5514 5514 5515 5514 5515 5515 5516 5516 5518 5518 5519 5520 5522 5522 5524 5524 5526 5528
5505 5505 5504 5504 5504 5504 5503 5504 5504 5504 5505 5506 5507 5507 5507 5507 5507 5507 5507 5507 5507 5507 5507 5508 5508 5508 5509 5510 5510 5510 5511 5512 5512 5512 5512 5513 5514 5515 5516 5517 5519 5520 5521 5522
5500 5500 5499 5500 5499 5499 5498 5498 5498 5498 5499 5499 5499 5500 5500 5501 5500 5500 5501 5501 5500 5500 5500 5500 5500 5501 5501 5501 5502 5503 5504 5504 5505 5505 5505 5506 5507 5508 5509 5510 5510 5511 5511 5510
5494 5493 5493 5492 5492 5492 5492 5491 5491 5491 5491 5491 5492 5492 5492 5492 5493 5493 5493 5493 5493 5493 5493 5492 5492 5492 5492 5492 5493 5493 5494 5495 5496 5497 5497 5497 5497 5498 5498 5498 5499 5499 5499 5499
5484 5484 5484 5484 5485 5484 5484 5483 5482 5483 5482 5482 5482 5482 5482 5483 5483 5483 5483 5483 5483 5483 5483 5483 5483 5482 5482 5482 5482 5482 5482 5482 5482 5483 5483 5484 5484 5485 5484 5484 5484 5484 5483 5483
5476 5475 5476 5476 5476 5475 5475 5475 5474 5473 5473 5472 5471 5471 5471 5471 5471 5472 5471 5471 5471 5471 5471 5471 5471 5471 5470 5469 5469 5469 5468 5468 5467 5468 5468 5468 5467 5468 5468 5469 5469 5468 5468 5467
5470 5469 5468 5468 5467 5466 5465 5464 5463 5462 5461 5460 5460 5459 5458 5458 5458 5458 5458 5457 5457 5456 5456 5456 5456 5456 5456 5456 5457 5457 5456 5455 5455 5454 5455 5454 5454 5454 5454 5453 5453 5453 5452 5451
5464 5462 5460 5458 5457 5455 5454 5452 5451 5449 5448 5447 5446 5446 5445 5444 5444 5443 5443 5442 5441 5441 5441 5441 5441 5440 5441 5441 5441 5441 5441 5440 5440 5440 5440 5439 5439 5438 5438 5437 5436 5436 5435 5434
5456 5453 5451 5448 5445 5443 5441 5439 5436 5434 5433 5431 5430 5430 5429 5429 5428 5428 5427 5426 5425 5425 5424 5424 5424 5424 5424 5424 5423 5423 5423 5423 5423 5423 5423 5422 5421 5419 5419 5419 5418 5418 5417 5417
5447 5443 5440 5436 5432 5429 5425 5422 5419 5416 5414 5413 5411 5410 5409 5408 5408 5408 5407 5407 5407 5407 5407 5406 5406 5406 5405 5404 5404 5404 5404 5403 5403 5403 5402 5402 5401 5401 5401 5400 5399 5398 5396 5394
5437 5432 5428 5424 5420 5415 5410 5405 5401 5397 5394 5392 5390 5388 5387 5387 5386 5386 5386 5386 5386 5387 5387 5387 5387 5386 5386 5386 5385 5385 5384 5384 5384 5383 5382 5381 5380 5380 5379 5378 5377 5377 5376 5375
5427 5422 5417 5412 5406 5400 5393 5386 5381 5376 5373 5370 5368 5367 5366 5365 5365 5365 5365 5365 5365 5365 5365 5365 5366 5366 5366 5366 5366 5366 5365 5365 5364 5364 5363 5363 5362 5361 5360 5359 5358 5357 5356 5355